Main page


Airports :

Gwalior, India

Rajmata Vijaya Raje Scindia Airport

latitude: 26-17-36N, longitude: 78-13-40E, elevation: 188 m

Current weather observation

The report was made 17 minutes ago, at 06:00 UTC
Wind 2 kt from the Northwest
Temperature 33°C
Humidity 24%
Pressure 1013 hPa
Scattered clouds at a height of 10000 ft

METAR: VIGR 200600Z 32002KT 4000HZ SCT100 33/10 Q1013

Time: 11:47 (06:17 UTC)

TAF: missing

Weather observations and forecasts of more than 4000 airports (METAR and TAF reports).

The available stations are represented by yellow and red dots on the map.

Hover mouse over dot to see the name of the station.

Then click to see weather observations and forecasts.

To change the map : click on the green buttons with a black cross to zoom in, on the green button with a dash to zoom out, or on the green arrows for adjacent maps.